Litchfield, IL

2:42 AM CDT on October 18, 2017 (GMT -0500)
Litchfield

Weather History for K3LF - October, 2012

Change the Weather History Date:

Saturday, October 6, 2012

  Actual Average (KALN) Record (KALN)
Temperature  
Mean Temperature 42 °F -  
Max Temperature 50 °F 70 °F 87 °F (2007)
Min Temperature 34 °F 48 °F 36 °F (2012)
Degree Days  
Heating Degree Days 23    
Moisture  
Dew Point 33 °F    
Average Humidity 71    
Maximum Humidity 92    
Minimum Humidity 48    
Precipitation  
Precipitation 0.07 in - - ()
Sea Level Pressure  
Sea Level Pressure 30.22 in    
Wind  
Wind Speed 8 mph (NW)    
Max Wind Speed 17 mph    
Max Gust Speed 21 mph    
Visibility 10 miles    
Events      
Averages and records for this station are not official NWS values.
T = Trace of Precipitation, MM = Missing Value Source: NWS Daily Summary

Daily Weather History Graph

Daily Weather History Graph

Search for Another Location

Airport or City:

Trip Planner

Search our weather history database for the weather conditions in past years. The results will help you decide how hot, cold, wet, or windy it might be!

Date:

Astronomy

Oct. 06, 2012 Rise Set
Actual Time 6:59 AM CDT 6:32 PM CDT
Civil Twilight 6:33 AM CDT 6:59 PM CDT
Nautical Twilight 6:02 AM CDT 7:30 PM CDT
Astronomical Twilight 5:31 AM CDT 8:01 PM CDT
Moon 10:50 PM CDT (10/6) 12:52 PM CDT (10/6)
Length of Visible Light 12h 26m
Length of Day
11h 32m
Waning Gibbous, 65% of the Moon is Illuminated
Oct 6
Waning Gibbous
Oct 8
Last Quarter
Oct 15
New
Oct 21
First Quarter
Oct 29
Full

Hourly Weather History & Observations

Time (CDT) Temp. Windchill Dew Point Humidity Pressure Visibility Wind Dir Wind Speed Gust Speed Precip Events Conditions
12:15 AM 37.8 °F 33.3 °F 35.1 °F 90% 30.19 in 10.0 mi NW 5.8 mph - N/A   Clear
12:35 AM 37.4 °F 32.1 °F 34.9 °F 91% 30.18 in 10.0 mi NW 6.9 mph - N/A   Clear
12:55 AM 37.4 °F 31.4 °F 34.7 °F 90% 30.18 in 10.0 mi NW 8.1 mph - 0.01 in   Clear
1:15 AM 37.6 °F 31.0 °F 34.7 °F 89% 30.18 in 10.0 mi NW 9.2 mph - N/A   Clear
1:35 AM 37.0 °F 31.6 °F 34.2 °F 89% 30.19 in 10.0 mi WNW 6.9 mph - N/A   Clear
1:55 AM 37.4 °F 32.1 °F 34.0 °F 87% 30.19 in 10.0 mi WNW 6.9 mph - N/A   Clear
2:15 AM 36.5 °F 31.8 °F 33.8 °F 90% 30.19 in 10.0 mi West 5.8 mph - N/A   Clear
2:35 AM 36.5 °F 31.0 °F 34.0 °F 91% 30.19 in 10.0 mi WNW 6.9 mph - N/A   Clear
2:55 AM 36.5 °F 31.8 °F 34.0 °F 91% 30.19 in 10.0 mi WNW 5.8 mph - 0.01 in   Clear
3:15 AM 36.1 °F 30.6 °F 33.8 °F 91% 30.19 in 10.0 mi WNW 6.9 mph - N/A   Clear
3:35 AM 36.0 °F 31.1 °F 33.8 °F 92% 30.18 in 10.0 mi West 5.8 mph - N/A   Clear
3:55 AM 35.8 °F 30.9 °F 33.6 °F 92% 30.19 in 10.0 mi West 5.8 mph - N/A   Clear
4:35 AM 35.2 °F 31.2 °F 32.9 °F 91% 30.19 in 10.0 mi NW 4.6 mph - N/A   Clear
4:55 AM 34.7 °F 30.6 °F 32.4 °F 91% 30.20 in 10.0 mi WNW 4.6 mph - N/A   Clear
5:35 AM 36.1 °F 31.4 °F 32.9 °F 88% 30.22 in 10.0 mi NW 5.8 mph - 0.01 in   Clear
5:55 AM 36.1 °F 32.3 °F 33.3 °F 89% 30.23 in 10.0 mi NW 4.6 mph - 0.03 in   Clear
6:15 AM 36.9 °F 33.1 °F 33.8 °F 89% 30.23 in 10.0 mi NW 4.6 mph - 0.01 in   Clear
6:55 AM 37.6 °F 34.0 °F 34.0 °F 87% 30.23 in 10.0 mi NW 4.6 mph - N/A   Mostly Cloudy
7:15 AM 37.8 °F 33.3 °F 33.8 °F 86% 30.23 in 10.0 mi NW 5.8 mph - N/A   Scattered Clouds
7:35 AM 38.1 °F 32.9 °F 33.8 °F 84% 30.24 in 10.0 mi NNW 6.9 mph - 0.01 in   Scattered Clouds
7:55 AM 38.5 °F 33.4 °F 34.2 °F 84% 30.23 in 10.0 mi NNW 6.9 mph - 0.01 in   Clear
8:15 AM 39.4 °F 34.5 °F 34.2 °F 82% 30.23 in 10.0 mi NNW 6.9 mph - N/A   Clear
8:35 AM 40.3 °F 34.4 °F 33.6 °F 77% 30.24 in 10.0 mi NNW 9.2 mph - N/A   Clear
8:55 AM 40.6 °F 34.3 °F 33.4 °F 75% 30.23 in 10.0 mi NNW 10.4 mph - N/A   Clear
9:15 AM 41.0 °F 35.2 °F 33.6 °F 75% 30.23 in 10.0 mi NNW 9.2 mph - N/A   Clear
9:35 AM 41.5 °F 35.0 °F 33.6 °F 73% 30.24 in 10.0 mi NNW 11.5 mph - N/A   Clear
9:55 AM 44.6 °F 38.1 °F 32.4 °F 62% 30.24 in 10.0 mi NNW 13.8 mph 20.7 mph N/A   Clear
10:15 AM 45.3 °F 38.1 °F 33.1 °F 62% 30.23 in 10.0 mi NNW 17.3 mph - N/A   Clear
10:35 AM 45.5 °F 38.9 °F 31.8 °F 59% 30.24 in 10.0 mi NNW 15.0 mph - N/A   Clear
10:55 AM 46.2 °F 39.8 °F 32.5 °F 59% 30.23 in 10.0 mi NNW 15.0 mph 20.7 mph N/A   Clear
11:15 AM 46.8 °F - 31.8 °F 56% 30.23 in 10.0 mi NNW 16.1 mph - N/A   Clear
11:35 AM 47.1 °F - 33.3 °F 59% 30.23 in 10.0 mi NNW 11.5 mph 19.6 mph N/A   Clear
11:55 AM 48.6 °F - 33.8 °F 57% 30.23 in 10.0 mi NNW 15.0 mph 19.6 mph N/A   Clear
12:15 PM 48.4 °F - 34.3 °F 58% 30.23 in 10.0 mi North 13.8 mph - N/A   Clear
12:35 PM 49.5 °F - 33.1 °F 53% 30.23 in 10.0 mi NNW 13.8 mph 19.6 mph N/A   Clear
12:55 PM 50.7 °F - 33.4 °F 52% 30.22 in 10.0 mi NNW 13.8 mph - N/A   Clear
1:15 PM 50.0 °F - 31.1 °F 48% 30.23 in 10.0 mi NW 15.0 mph - N/A   Clear
1:35 PM 48.7 °F - 31.3 °F 51% 30.23 in 10.0 mi NW 9.2 mph - N/A   Clear
1:55 PM 49.1 °F - 31.6 °F 51% 30.22 in 10.0 mi NW 11.5 mph - N/A   Clear
2:15 PM 48.2 °F - 30.4 °F 50% 30.21 in 10.0 mi WNW 8.1 mph - N/A   Clear
2:35 PM 48.2 °F - 32.0 °F 54% 30.21 in 10.0 mi NW 10.4 mph - N/A   Clear
2:55 PM 48.4 °F - 31.5 °F 52% 30.21 in 10.0 mi WNW 9.2 mph - N/A   Scattered Clouds
3:15 PM 48.9 °F - 31.3 °F 51% 30.20 in 10.0 mi NW 6.9 mph - N/A   Clear
3:35 PM 48.6 °F - 31.3 °F 51% 30.20 in 10.0 mi WNW 9.2 mph - N/A   Clear
3:55 PM 48.6 °F - 31.5 °F 52% 30.20 in 10.0 mi NW 6.9 mph - N/A   Clear
4:15 PM 48.2 °F - 32.2 °F 54% 30.21 in 10.0 mi WNW 9.2 mph - N/A   Scattered Clouds
4:35 PM 47.7 °F - 32.0 °F 55% 30.21 in 10.0 mi WNW 10.4 mph - N/A   Scattered Clouds
4:55 PM 47.3 °F - 32.0 °F 55% 30.20 in 10.0 mi WNW 9.2 mph - N/A   Scattered Clouds
5:15 PM 46.9 °F - 32.4 °F 57% 30.21 in 10.0 mi NNW 10.4 mph - N/A   Mostly Cloudy
5:35 PM 46.4 °F 42.9 °F 32.2 °F 58% 30.21 in 10.0 mi NW 6.9 mph - N/A   Mostly Cloudy
5:55 PM 46.0 °F 42.5 °F 32.4 °F 59% 30.21 in 10.0 mi WNW 6.9 mph - N/A   Mostly Cloudy
6:15 PM 45.7 °F 43.4 °F 32.9 °F 61% 30.21 in 10.0 mi WNW 4.6 mph - N/A   Scattered Clouds
6:35 PM 45.3 °F 42.3 °F 33.6 °F 64% 30.22 in 10.0 mi NW 5.8 mph - N/A   Scattered Clouds
6:55 PM 44.6 °F 40.2 °F 33.6 °F 65% 30.21 in 10.0 mi NNW 8.1 mph - N/A   Mostly Cloudy
7:15 PM 43.2 °F 38.4 °F 33.8 °F 70% 30.22 in 10.0 mi NNW 8.1 mph - N/A   Scattered Clouds
7:35 PM 42.8 °F 37.5 °F 33.4 °F 70% 30.22 in 10.0 mi NNW 9.2 mph - N/A   Clear
7:55 PM 42.3 °F 37.3 °F 33.1 °F 70% 30.22 in 10.0 mi NNW 8.1 mph - N/A   Clear
8:15 PM 41.9 °F 36.9 °F 33.1 °F 71% 30.23 in 10.0 mi NW 8.1 mph - N/A   Clear
8:35 PM 40.6 °F 36.0 °F 33.1 °F 74% 30.23 in 10.0 mi NW 6.9 mph - N/A   Clear
8:55 PM 40.1 °F 36.1 °F 33.1 °F 76% 30.24 in 10.0 mi NW 5.8 mph - N/A   Scattered Clouds
9:15 PM 40.6 °F 37.5 °F 33.1 °F 74% 30.24 in 10.0 mi WNW 4.6 mph - N/A   Mostly Cloudy
9:35 PM 41.0 °F 38.0 °F 33.1 °F 73% 30.25 in 10.0 mi WNW 4.6 mph - N/A   Overcast
9:55 PM 41.2 °F 37.3 °F 32.9 °F 72% 30.25 in 10.0 mi WNW 5.8 mph - N/A   Overcast
10:15 PM 41.0 °F 38.0 °F 33.1 °F 73% 30.24 in 10.0 mi NW 4.6 mph - N/A   Overcast
10:35 PM 41.0 °F 38.0 °F 33.3 °F 74% 30.24 in 10.0 mi NW 4.6 mph - N/A   Mostly Cloudy
11:15 PM 41.0 °F 37.1 °F 32.9 °F 73% 30.23 in 10.0 mi WNW 5.8 mph - N/A   Scattered Clouds
11:55 PM 39.2 °F 35.9 °F 33.1 °F 79% 30.23 in 10.0 mi WNW 4.6 mph - N/A   Scattered Clouds